[[{"header":{"parameterUnit":"m.s-1","parameterCategory":1,"la1":30.2992,"la2":30.254,"lo1":-89.0895,"lo2":-89.0443,"dy":0.0025,"dx":0.0025,"nx":19,"ny":19,"refTime":"2026-04-20T21:00:00:Z","depth":0,"parameterNumber":2,"parameterNumberName":"U-component_of_WINDS"},"data":[0,0,0,-6.0507,-6.0509,-6.0622,-6.0623,-6.0772,-6.0774,0,0,0,0,0,0,0,0,0,0,0,-6.0476,-6.0477,-6.0506,-6.0509,-6.0622,-6.0623,-6.0772,-6.0774,0,0,0,0,0,0,0,0,0,0,0,-6.0475,-6.0477,-6.0478,-6.051,-6.0622,-6.0623,-6.0772,-6.0684,0,0,0,0,0,0,0,0,0,0,-6.0574,-6.0548,-6.0476,-6.0478,-6.051,-6.0622,-6.0623,-6.068,-6.069,-6.0723,0,-6.0753,0,-6.0766,-6.0784,-6.0784,0,0,0,-6.0507,-6.054,-6.0568,-6.0478,-6.0511,-6.0622,-6.0571,-6.0686,-6.0697,-6.0736,-6.0755,-6.0761,-6.0768,-6.0785,-6.0786,-6.0985,-6.0986,0,0,-6.0501,-6.0497,-6.0561,-6.0575,-6.0559,-6.0567,-6.0574,-6.0692,-6.0713,-6.0756,-6.0764,-6.0771,-6.0786,-6.0787,-6.0984,-6.0985,0,0,0,-6.0484,-6.0493,-6.0518,-6.0569,-6.059,-6.057,-6.0579,-6.0708,-6.0716,-6.0766,-6.0773,-6.0787,-6.0789,-6.0983,-6.0984,-6.1031,0,0,0,-6.048,-6.0484,-6.0516,-6.0515,-6.0588,-6.065,-6.0592,-6.0708,-6.0721,-6.0772,-6.0787,-6.079,-6.0981,-6.0983,-6.1027,-6.1052,0,0,0,-6.0467,-6.0482,-6.05,-6.0514,-6.0563,-6.0648,-6.0663,-6.0711,-6.0726,-6.0785,-6.0791,-6.0981,-6.0983,-6.1024,-6.1047,-6.1102,0,0,0,-6.0452,-6.0539,-6.05,-6.0601,-6.0562,-6.0677,-6.0663,-6.0749,-6.0805,-6.0788,-6.0982,-6.0984,-6.1023,-6.1043,-6.1099,-6.1146,-6.1167,0,0,-6.056,-6.0552,-6.0612,-6.058,-6.0701,-6.066,-6.0788,-6.0843,-6.0852,-6.094,-6.0945,-6.1028,-6.1046,-6.1101,-6.1287,-6.1303,0,0,0,-6.0644,-6.0687,-6.072,-6.0773,-6.0818,-6.0858,-6.0894,-6.0914,-6.0989,-6.0896,-6.1065,-6.1076,-6.1108,-6.1131,-6.1145,-6.1172,-6.0995,-6.0995,-6.0995,-6.0789,-6.0797,-6.0896,-6.0917,-6.097,-6.1007,-6.105,-6.1084,-6.1076,-6.1116,-6.1141,-6.1252,-6.1279,-6.1289,-6.1318,-6.117,-6.117,-6.117,-6.117,-6.0945,-6.1005,-6.0995,-6.1086,-6.1094,-6.1171,-6.1212,-6.1204,-6.1276,-6.1234,-6.1263,-6.1213,-6.1307,-6.1332,-6.1174,-6.1173,-6.1173,-6.1172,-6.1172,-6.1038,-6.1068,-6.1093,-6.1173,-6.1234,-6.1254,-6.1324,-6.133,-6.1335,-6.1365,-6.1391,-6.139,-6.1387,-6.1377,-6.1378,-6.1378,-6.1379,-6.1379,-6.1379,-6.1123,-6.115,-6.1208,-6.1265,-6.1301,-6.1349,-6.139,-6.1426,-6.1466,-6.1464,-6.1465,-6.1451,-6.1316,-6.128,-6.1385,-6.1384,-6.1383,-6.1383,-6.1382,-6.1272,-6.124,-6.133,-6.1367,-6.1434,-6.1494,-6.1502,-6.1575,-6.1605,-6.164,-6.1623,-6.1522,-6.1514,-6.1503,-6.1473,-6.1622,-6.1622,-6.1622,-6.1622,-6.1348,-6.1346,-6.144,-6.1497,-6.1555,-6.1572,-6.1674,-6.1708,-6.1737,-6.1757,-6.1737,-6.1699,-6.1688,-6.1686,-6.1671,-6.1643,-6.1832,-6.1832,-6.1832,-6.1439,-6.1443,-6.1528,-6.1557,-6.1612,-6.1658,-6.1754,-6.1821,-6.1848,-6.1841,-6.1772,-6.1763,-6.1702,-6.1682,-6.1668,-6.1645,-6.1593,0,0]},{"header":{"parameterUnit":"m.s-1","parameterCategory":1,"la1":30.2992,"la2":30.254,"lo1":-89.0895,"lo2":-89.0443,"dy":0.0025,"dx":0.0025,"nx":19,"ny":19,"refTime":"2026-04-20T21:00:00:Z","depth":0,"parameterNumber":3,"parameterNumberName":"V-component_of_WINDS"},"data":[0,0,0,4.4991,4.4991,4.5021,4.5021,4.5054,4.5054,0,0,0,0,0,0,0,0,0,0,0,4.4979,4.498,4.4991,4.4991,4.5021,4.5021,4.5054,4.5054,0,0,0,0,0,0,0,0,0,0,0,4.4979,4.498,4.498,4.4991,4.5021,4.5021,4.5054,4.5033,0,0,0,0,0,0,0,0,0,0,4.5005,4.4992,4.4979,4.498,4.4992,4.5021,4.5021,4.5032,4.5034,4.5039,0,4.5042,0,4.5049,4.5056,4.5056,0,0,0,4.4993,4.4991,4.5001,4.498,4.4992,4.5021,4.5008,4.5033,4.5036,4.5041,4.5043,4.5044,4.5049,4.5056,4.5056,4.5078,4.5078,0,0,4.4991,4.4983,4.4999,4.5002,4.4998,4.5007,4.5009,4.5035,4.5035,4.5043,4.5045,4.505,4.5056,4.5057,4.5078,4.5078,0,0,0,4.4985,4.4982,4.4992,4.5001,4.5007,4.5008,4.501,4.5034,4.5038,4.5045,4.505,4.5056,4.5057,4.5078,4.5078,4.5073,0,0,0,4.4985,4.4979,4.4991,4.4986,4.5006,4.5021,4.5008,4.5036,4.504,4.505,4.5057,4.5057,4.5078,4.5078,4.5073,4.5071,0,0,0,4.4978,4.4978,4.4981,4.4986,4.4998,4.5021,4.5026,4.5037,4.5042,4.5056,4.5057,4.5078,4.5078,4.5073,4.5071,4.5075,0,0,0,4.4969,4.4975,4.4981,4.499,4.4998,4.5017,4.5026,4.5041,4.5051,4.5057,4.5078,4.5078,4.5073,4.5071,4.5075,4.5076,4.5076,0,0,4.4971,4.4975,4.498,4.4987,4.5003,4.5013,4.5029,4.5046,4.5054,4.507,4.507,4.5073,4.5071,4.5075,4.508,4.5079,0,0,0,4.4978,4.4982,4.4988,4.4999,4.5014,4.5026,4.5042,4.5048,4.5063,4.5061,4.5075,4.5075,4.5077,4.5078,4.5078,4.5081,4.5079,4.5079,4.5079,4.4969,4.4981,4.4992,4.5007,4.5018,4.5035,4.5045,4.5057,4.5064,4.5067,4.5072,4.5074,4.5075,4.5075,4.5077,4.5074,4.5074,4.5074,4.5074,4.4974,4.4982,4.4994,4.5008,4.5021,4.5033,4.505,4.5056,4.5068,4.5071,4.5073,4.5075,4.5074,4.5077,4.5074,4.5074,4.5074,4.5074,4.5074,4.4969,4.4975,4.4984,4.5002,4.5015,4.5031,4.5044,4.5054,4.5064,4.5067,4.5073,4.5073,4.5075,4.5069,4.5069,4.5069,4.5069,4.5069,4.5069,4.496,4.4971,4.498,4.4998,4.5007,4.5021,4.504,4.5049,4.5062,4.5069,4.5069,4.5076,4.5072,4.5071,4.5069,4.5069,4.5069,4.5069,4.5069,4.496,4.4962,4.4977,4.4987,4.5009,4.5021,4.5036,4.5054,4.5063,4.5069,4.5077,4.5072,4.5076,4.5076,4.5075,4.5074,4.5074,4.5074,4.5074,4.4955,4.4959,4.4978,4.4993,4.5008,4.5023,4.504,4.5056,4.5072,4.5078,4.508,4.508,4.508,4.5083,4.5083,4.5082,4.5084,4.5084,4.5084,4.4956,4.4962,4.4974,4.4992,4.501,4.5026,4.5043,4.5059,4.5077,4.5085,4.5084,4.5083,4.5083,4.5082,4.5088,4.5088,4.5087,0,0]}]]